Location: Unspecified
(0.0000°N, 0.0000°E)
Time: 03:56:06
(UTC+00:00)

Tiros 1 - All Passes

Search period start: 08 February 2016 00:00
Search period end: 18 February 2016 00:00
Orbit: 631 x 665 km, 48.4° (Epoch: 07 February)

Date Brightness Start Highest point End Pass type
(mag) Time Alt. Az. Time Alt. Az. Time Alt. Az.
08 Feb - 07:26:03 10° SSW 07:30:37 51° SE 07:35:12 10° NE daylight
08 Feb - 09:10:40 10° WNW 09:12:43 13° NW 09:14:47 10° NNW daylight
08 Feb - 19:39:09 10° NW 19:43:53 85° SW 19:48:34 10° SE visible
09 Feb - 06:12:24 10° SSE 06:14:52 14° SE 06:17:20 10° E daylight
09 Feb - 07:52:27 10° SW 07:56:56 45° NW 08:01:27 10° NNE daylight
09 Feb - 18:24:15 10° N 18:28:10 25° NE 18:32:02 10° ESE daylight
09 Feb - 20:06:21 10° WNW 20:10:13 25° SW 20:14:03 10° S visible
10 Feb - 06:36:46 10° SSW 06:41:15 45° SE 06:45:45 10° NE daylight
10 Feb - 08:20:52 10° W 08:23:20 14° NW 08:25:48 10° NNW daylight
10 Feb - 18:49:46 10° NW 18:54:31 86° NE 18:59:13 10° SE visible
11 Feb - 05:23:30 10° SSE 05:25:29 13° SE 05:27:29 10° ESE visible
11 Feb - 07:03:02 10° SW 07:07:34 50° NW 07:12:08 10° NNE daylight
11 Feb - 17:35:03 10° N 17:38:47 23° NE 17:42:31 10° ESE daylight
11 Feb - 19:16:49 10° WNW 19:20:50 28° SW 19:24:51 10° S visible
12 Feb - 05:47:30 10° SSW 05:51:53 40° SE 05:56:17 10° ENE visible
12 Feb - 07:31:10 10° W 07:33:57 16° NW 07:36:46 10° NNW daylight
12 Feb - 18:00:23 10° NW 18:05:08 77° NE 18:09:52 10° SE daylight
13 Feb - 04:34:45 10° SSE 04:36:06 11° SE 04:37:27 10° ESE visible
13 Feb - 06:13:37 10° SW 06:18:12 57° NW 06:22:48 10° NNE daylight
13 Feb - 16:45:50 10° N 16:49:24 21° NE 16:52:57 10° E daylight
13 Feb - 18:27:16 10° WNW 18:31:27 31° SW 18:35:37 10° S daylight
14 Feb - 04:58:14 10° SSW 05:02:30 36° SE 05:06:48 10° ENE visible
14 Feb - 06:41:30 10° W 06:44:34 17° NW 06:47:39 10° N daylight
14 Feb - 17:11:01 10° NNW 17:15:45 69° NE 17:20:28 10° SE daylight
15 Feb - 05:24:13 10° SW 05:28:49 64° NW 05:33:28 10° NNE visible
15 Feb - 15:56:40 10° N 16:00:01 19° NE 16:03:21 10° E daylight
15 Feb - 17:37:45 10° WNW 17:42:05 34° SW 17:46:22 10° SSE daylight
16 Feb - 04:08:59 10° SSW 04:13:09 32° SE 04:17:18 10° ENE visible
16 Feb - 05:51:53 10° W 05:55:11 19° NW 05:58:30 10° N visible
16 Feb - 16:21:39 10° NNW 16:26:23 61° NE 16:31:04 10° SE daylight
16 Feb - 18:07:25 10° WSW 18:08:29 11° SW 18:09:35 10° SW daylight
17 Feb - 04:34:50 10° SW 04:39:27 72° NW 04:44:06 10° NNE visible
17 Feb - 15:07:32 10° N 15:10:37 17° NE 15:13:42 10° E daylight
17 Feb - 16:48:15 10° WNW 16:52:42 38° SW 16:57:07 10° SSE daylight
